TimePDT,TemperatureF,Dew PointF,Humidity,Sea Level PressureIn,VisibilityMPH,Wind Direction,Wind SpeedMPH,Gust SpeedMPH,PrecipitationIn,Events,Conditions,WindDirDegrees,DateUTC
12:15 AM,46.4,46.4,100,29.84,10.0,NNW,3.5,-,N/A,,Clear,340,2013-10-29 07:15:00
12:35 AM,46.4,46.4,100,29.85,10.0,Calm,Calm,-,N/A,,Clear,0,2013-10-29 07:35:00
12:55 AM,46.4,46.4,100,29.86,10.0,NW,3.5,-,N/A,,Clear,320,2013-10-29 07:55:00
1:15 AM,46.4,46.4,100,29.86,10.0,Calm,Calm,-,N/A,,Clear,0,2013-10-29 08:15:00
1:35 AM,46.4,46.4,100,29.87,10.0,Calm,Calm,-,N/A,,Clear,0,2013-10-29 08:35:00
1:55 AM,46.4,46.4,100,29.87,10.0,Calm,Calm,-,N/A,,Clear,0,2013-10-29 08:55:00
2:15 AM,44.6,44.6,100,29.88,10.0,North,3.5,-,N/A,,Clear,350,2013-10-29 09:15:00
2:35 AM,44.6,44.6,100,29.88,10.0,Calm,Calm,-,N/A,,Clear,0,2013-10-29 09:35:00
2:55 AM,42.8,42.8,100,29.89,10.0,Calm,Calm,-,N/A,,Scattered Clouds,0,2013-10-29 09:55:00
3:15 AM,42.8,42.8,100,29.89,8.0,Calm,Calm,-,N/A,,Scattered Clouds,0,2013-10-29 10:15:00
3:35 AM,42.8,42.8,100,29.90,10.0,Calm,Calm,-,N/A,,Partly Cloudy,0,2013-10-29 10:35:00
4:15 AM,44.6,44.6,100,29.90,10.0,Calm,Calm,-,N/A,,Partly Cloudy,0,2013-10-29 11:15:00
4:35 AM,42.8,42.8,100,29.91,10.0,South,3.5,-,N/A,,Partly Cloudy,190,2013-10-29 11:35:00
5:15 AM,39.2,39.2,100,29.92,1.0,Calm,Calm,-,N/A,,Overcast,0,2013-10-29 12:15:00
5:35 AM,39.2,39.2,100,29.93,0.5,Calm,Calm,-,N/A,Fog,Fog,0,2013-10-29 12:35:00
6:15 AM,44.6,44.6,100,29.93,10.0,Calm,Calm,-,N/A,,Overcast,0,2013-10-29 13:15:00
6:35 AM,46.4,46.4,100,29.94,10.0,Calm,Calm,-,N/A,,Overcast,0,2013-10-29 13:35:00
6:55 AM,46.4,46.4,100,29.94,10.0,Calm,Calm,-,N/A,,Overcast,0,2013-10-29 13:55:00
7:15 AM,46.4,46.4,100,29.95,10.0,Calm,Calm,-,N/A,,Overcast,0,2013-10-29 14:15:00
7:35 AM,48.2,48.2,100,29.95,10.0,SSW,3.5,-,N/A,,Overcast,200,2013-10-29 14:35:00
7:55 AM,48.2,48.2,100,29.95,10.0,South,3.5,-,N/A,,Overcast,180,2013-10-29 14:55:00
8:15 AM,48.2,48.2,100,29.96,10.0,Calm,Calm,-,N/A,,Overcast,0,2013-10-29 15:15:00
8:35 AM,50.0,48.2,94,29.97,10.0,South,3.5,-,N/A,,Overcast,190,2013-10-29 15:35:00
8:55 AM,50.0,48.2,94,29.97,10.0,Calm,Calm,-,N/A,,Overcast,0,2013-10-29 15:55:00
9:15 AM,50.0,48.2,94,29.98,10.0,Calm,Calm,-,N/A,,Overcast,0,2013-10-29 16:15:00
9:35 AM,51.8,50.0,94,29.98,10.0,North,3.5,-,N/A,,Overcast,10,2013-10-29 16:35:00
9:55 AM,53.6,48.2,82,29.98,10.0,NE,3.5,-,N/A,,Overcast,40,2013-10-29 16:55:00
10:15 AM,53.6,48.2,82,29.99,10.0,NE,3.5,-,N/A,,Overcast,40,2013-10-29 17:15:00
10:35 AM,55.4,48.2,77,29.99,10.0,Calm,Calm,-,N/A,,Overcast,0,2013-10-29 17:35:00
10:55 AM,55.4,48.2,77,30.00,10.0,Calm,Calm,-,N/A,,Overcast,0,2013-10-29 17:55:00
11:15 AM,55.4,48.2,77,30.00,10.0,SSE,3.5,-,N/A,,Mostly Cloudy,150,2013-10-29 18:15:00
11:35 AM,57.2,46.4,67,30.00,10.0,Calm,Calm,-,N/A,,Scattered Clouds,0,2013-10-29 18:35:00
11:55 AM,57.2,46.4,67,30.00,10.0,South,3.5,-,N/A,,Partly Cloudy,180,2013-10-29 18:55:00
12:15 PM,59.0,46.4,63,29.99,10.0,South,4.6,-,N/A,,Clear,170,2013-10-29 19:15:00
12:35 PM,59.0,46.4,63,29.99,10.0,SE,6.9,-,N/A,,Clear,130,2013-10-29 19:35:00
12:55 PM,59.0,46.4,63,29.99,10.0,SE,6.9,-,N/A,,Mostly Cloudy,130,2013-10-29 19:55:00
1:15 PM,59.0,46.4,63,29.99,10.0,ESE,5.8,-,N/A,,Overcast,120,2013-10-29 20:15:00
1:35 PM,59.0,46.4,63,29.98,10.0,East,4.6,-,N/A,,Mostly Cloudy,80,2013-10-29 20:35:00
1:55 PM,59.0,46.4,63,29.98,10.0,SE,3.5,-,N/A,,Mostly Cloudy,130,2013-10-29 20:55:00
2:15 PM,60.8,46.4,59,29.98,10.0,SE,4.6,-,N/A,,Scattered Clouds,130,2013-10-29 21:15:00
2:35 PM,62.6,46.4,55,29.98,10.0,SE,8.1,-,N/A,,Partly Cloudy,130,2013-10-29 21:35:00
2:55 PM,62.6,46.4,55,29.98,10.0,SE,8.1,-,N/A,,Clear,130,2013-10-29 21:55:00
3:15 PM,62.6,46.4,55,29.98,10.0,South,8.1,-,N/A,,Clear,170,2013-10-29 22:15:00
3:35 PM,62.6,46.4,55,29.98,10.0,SW,5.8,-,N/A,,Clear,230,2013-10-29 22:35:00
3:55 PM,62.6,46.4,55,29.98,10.0,SSE,5.8,-,N/A,,Clear,160,2013-10-29 22:55:00
4:15 PM,62.6,44.6,52,29.98,10.0,South,5.8,-,N/A,,Clear,180,2013-10-29 23:15:00
4:35 PM,62.6,44.6,52,29.99,10.0,South,6.9,-,N/A,,Clear,170,2013-10-29 23:35:00
4:55 PM,62.6,46.4,55,29.99,10.0,SE,6.9,-,N/A,,Clear,140,2013-10-29 23:55:00
5:15 PM,62.6,46.4,55,29.99,10.0,SE,5.8,-,N/A,,Clear,140,2013-10-30 00:15:00
5:35 PM,62.6,44.6,52,29.99,10.0,South,5.8,-,N/A,,Clear,170,2013-10-30 00:35:00
5:55 PM,59.0,46.4,63,30.00,10.0,SSW,4.6,-,N/A,,Clear,210,2013-10-30 00:55:00
6:15 PM,57.2,46.4,67,30.00,-9999.0,WSW,5.8,-,N/A,,Clear,240,2013-10-30 01:15:00
6:35 PM,57.2,46.4,67,30.01,-9999.0,Calm,Calm,-,N/A,,Clear,0,2013-10-30 01:35:00
6:55 PM,55.4,46.4,72,30.02,10.0,Calm,Calm,-,N/A,,Clear,0,2013-10-30 01:55:00
7:15 PM,50.0,46.4,87,30.02,10.0,NNE,4.6,-,N/A,,Clear,20,2013-10-30 02:15:00
7:35 PM,50.0,46.4,87,30.03,10.0,Calm,Calm,-,N/A,,Clear,0,2013-10-30 02:35:00
7:55 PM,48.2,44.6,87,30.04,10.0,Calm,Calm,-,N/A,,Clear,0,2013-10-30 02:55:00
8:15 PM,50.0,44.6,82,30.04,10.0,Calm,Calm,-,N/A,,Clear,0,2013-10-30 03:15:00
8:35 PM,48.2,44.6,87,30.04,10.0,Calm,Calm,-,N/A,,Clear,0,2013-10-30 03:35:00
8:55 PM,44.6,41.0,87,30.04,10.0,North,4.6,-,N/A,,Clear,360,2013-10-30 03:55:00
9:15 PM,46.4,46.4,100,30.05,10.0,NNW,8.1,-,N/A,,Clear,330,2013-10-30 04:15:00
9:35 PM,48.2,46.4,93,30.05,10.0,Calm,Calm,-,N/A,,Clear,0,2013-10-30 04:35:00
9:55 PM,48.2,46.4,93,30.06,10.0,Calm,Calm,-,N/A,,Clear,0,2013-10-30 04:55:00
10:15 PM,44.6,44.6,100,30.06,10.0,Calm,Calm,-,N/A,,Clear,0,2013-10-30 05:15:00
10:35 PM,46.4,44.6,93,30.07,10.0,Calm,Calm,-,N/A,,Clear,0,2013-10-30 05:35:00
10:55 PM,44.6,44.6,100,30.07,10.0,Calm,Calm,-,N/A,,Clear,0,2013-10-30 05:55:00
11:15 PM,44.6,42.8,93,30.07,10.0,Calm,Calm,-,N/A,,Clear,0,2013-10-30 06:15:00
11:35 PM,42.8,42.8,100,30.07,10.0,Calm,Calm,-,N/A,,Clear,0,2013-10-30 06:35:00
11:55 PM,44.6,44.6,100,30.07,10.0,Calm,Calm,-,N/A,,Clear,0,2013-10-30 06:55:00